| time (UTC) | temp F | wind direction | speed MPH | gust MPH | rain 1hr in | rain 24hr in | rain mn in | humidity % | barometer mb |
| 20260902161613 | 72 | 328 | 0.0 | 2.0 | 0.60 | 1.14 | 0.61 | 97 | 1019.7 |
| 20260902160015 | 72 | 4 | 1.0 | 8.0 | 0.53 | 1.08 | 0.54 | 96 | 1020.3 |
| 20260902154507 | 0 | 0.0 | 0.0 | 0.00 | 0.55 | 0.01 | 1019.8 | ||
| 20260902153005 | 0 | 150 | 0.0 | 0.0 | 0.00 | 0.55 | 0.01 | 1018.4 | |
| 20260902151600 | 73 | 122 | 2.0 | 6.0 | 0.00 | 0.55 | 0.01 | 94 | 1018.3 |
| 20260902150059 | 73 | 122 | 1.0 | 5.0 | 0.00 | 0.55 | 0.01 | 96 | 1018.0 |
| 20260902144555 | 73 | 118 | 1.0 | 6.0 | 0.00 | 0.55 | 0.01 | 97 | 1018.2 |
| 20260902143051 | 72 | 128 | 1.0 | 4.0 | 0.00 | 0.55 | 0.01 | 99 | 1018.5 |
| 20260902141555 | 72 | 141 | 2.0 | 6.0 | 0.00 | 0.55 | 0.01 | 100 | 1018.6 |
| 20260902140050 | 72 | 126 | 1.0 | 4.0 | 0.00 | 0.55 | 0.01 | 100 | 1018.4 |
| 20260902134548 | 71 | 143 | 1.0 | 4.0 | 0.00 | 0.55 | 0.01 | 100 | 1018.5 |
| 20260902133047 | 70 | 121 | 0.0 | 2.0 | 0.00 | 0.55 | 0.01 | 100 | 1018.7 |
| 20260902131546 | 70 | 149 | 1.0 | 4.0 | 0.00 | 0.55 | 0.01 | 100 | 1018.4 |
| 20260902130045 | 70 | 96 | 0.0 | 2.0 | 0.00 | 0.55 | 0.01 | 100 | 1018.4 |
| 20260902124555 | 70 | 120 | 0.0 | 3.0 | 0.00 | 0.55 | 0.01 | 100 | 1017.9 |
| 20260902123045 | 69 | 124 | 0.0 | 3.0 | 0.00 | 0.55 | 0.01 | 99 | 1017.6 |
| 20260902121547 | 69 | 98 | 0.0 | 2.0 | 0.00 | 0.55 | 0.01 | 99 | 1017.8 |
| 20260902120046 | 70 | 136 | 0.0 | 2.0 | 0.00 | 0.55 | 0.01 | 100 | 1017.9 |
| 20260902114545 | 69 | 109 | 0.0 | 1.0 | 0.00 | 0.55 | 0.01 | 99 | 1017.8 |
| 20260902113052 | 69 | 82 | 0.0 | 2.0 | 0.00 | 0.55 | 0.01 | 99 | 1017.4 |
| 20260902111552 | 69 | 77 | 0.0 | 1.0 | 0.00 | 0.55 | 0.01 | 99 | 1017.5 |
| 20260902110041 | 69 | 25 | 0.0 | 2.0 | 0.00 | 0.55 | 0.01 | 99 | 1017.3 |
| 20260902104543 | 68 | 63 | 0.0 | 2.0 | 0.00 | 0.55 | 0.01 | 99 | 1017.4 |
| 20260902103040 | 69 | 301 | 0.0 | 0.0 | 0.00 | 0.55 | 0.01 | 99 | 1017.6 |
| 20260902101542 | 69 | 300 | 0.0 | 1.0 | 0.00 | 0.55 | 0.01 | 99 | 1017.5 |
| 20260902100039 | 68 | 300 | 0.0 | 1.0 | 0.00 | 0.55 | 0.01 | 99 | 1017.6 |
| 20260902094547 | 68 | 301 | 0.0 | 0.0 | 0.00 | 0.55 | 0.01 | 99 | 1017.7 |
| 20260902093036 | 68 | 301 | 0.0 | 1.0 | 0.00 | 0.55 | 0.01 | 99 | 1017.5 |
| 20260902091544 | 68 | 301 | 0.0 | 0.0 | 0.00 | 0.55 | 0.01 | 99 | 1017.2 |
| 20260902090033 | 68 | 301 | 0.0 | 1.0 | 0.00 | 0.55 | 0.01 | 99 | 1017.2 |
| 20260902084532 | 68 | 301 | 0.0 | 0.0 | 0.00 | 0.55 | 0.01 | 99 | 1017.1 |
| 20260902083030 | 68 | 301 | 0.0 | 0.0 | 0.00 | 0.55 | 0.01 | 99 | 1016.8 |
| 20260902081530 | 67 | 182 | 0.0 | 0.0 | 0.00 | 0.55 | 0.01 | 99 | 1016.8 |
| 20260902080037 | 68 | 182 | 0.0 | 0.0 | 0.00 | 0.55 | 0.01 | 99 | 1016.9 |
| 20260902074537 | 68 | 182 | 0.0 | 0.0 | 0.00 | 0.55 | 0.01 | 99 | 1016.7 |
| 20260902073035 | 68 | 182 | 0.0 | 0.0 | 0.00 | 0.55 | 0.01 | 99 | 1016.7 |
| 20260902071535 | 68 | 301 | 0.0 | 0.0 | 0.00 | 0.55 | 0.01 | 99 | 1016.7 |
| 20260902070026 | 68 | 301 | 0.0 | 1.0 | 0.00 | 0.55 | 0.01 | 99 | 1016.6 |
| 20260902064522 | 69 | 298 | 0.0 | 1.0 | 0.01 | 0.55 | 0.01 | 99 | 1016.5 |
| 20260902063020 | 69 | 305 | 0.0 | 1.0 | 0.01 | 0.55 | 0.01 | 99 | 1016.5 |
| 20260902061522 | 70 | 297 | 0.0 | 1.0 | 0.01 | 0.55 | 0.01 | 99 | 1016.6 |
| 20260902060019 | 70 | 297 | 0.0 | 2.0 | 0.01 | 0.55 | 0.01 | 99 | 1016.7 |
| 20260902054515 | 70 | 293 | 0.0 | 1.0 | 0.00 | 0.54 | 0.00 | 99 | 1016.7 |
| 20260902053022 | 70 | 309 | 0.0 | 2.0 | 0.00 | 0.54 | 0.00 | 99 | 1016.7 |
| 20260902051511 | 0 | 0.0 | 0.0 | 0.00 | 0.54 | 0.00 | 1016.5 | ||
| 20260902050010 | 0 | 66 | 0.0 | 0.0 | 0.00 | 0.54 | 0.00 | 1016.4 | |
| 20260902044504 | 0 | 0.0 | 0.0 | 0.00 | 0.54 | 0.00 | 1016.2 | ||
| 20260902043102 | 71 | 9 | 2.0 | 0.0 | 0.01 | 0.54 | 0.00 | 1016.2 | |
| 20260902041606 | 70 | 82 | 0.0 | 1.0 | 0.04 | 0.54 | 0.00 | 99 | 1015.8 |
| 20260902040055 | 70 | 138 | 0.0 | 1.0 | 0.04 | 0.54 | 0.54 | 99 | 1015.7 |
| 20260902034556 | 71 | 153 | 0.0 | 2.0 | 0.05 | 0.54 | 0.54 | 99 | 1015.6 |
| 20260902033106 | 71 | 334 | 2.0 | 6.0 | 0.06 | 0.54 | 0.54 | 99 | 1016.1 |
| 20260902031554 | 71 | 300 | 6.0 | 13.0 | 0.50 | 0.50 | 0.50 | 99 | 1016.8 |
| 20260902030053 | 71 | 293 | 2.0 | 5.0 | 0.50 | 0.50 | 0.50 | 99 | 1016.4 |
| 20260902024553 | 71 | 304 | 0.0 | 2.0 | 0.49 | 0.49 | 0.49 | 99 | 1015.5 |
| 20260902023101 | 71 | 314 | 0.0 | 3.0 | 0.49 | 0.49 | 0.49 | 98 | 1015.4 |
| 20260902021609 | 0 | 0.0 | 0.0 | 0.00 | 0.00 | 0.00 | 1015.6 | ||
| 20260902020057 | 0 | 0.0 | 0.0 | 0.00 | 0.00 | 0.00 | 1014.9 | ||
| 20260902014547 | 0 | 0.0 | 0.0 | 0.00 | 0.00 | 0.00 | 1015.2 | ||
| 20260902013043 | 76 | 75 | 1.0 | 4.0 | 0.00 | 0.00 | 0.00 | 81 | 1015.6 |
| 20260902011544 | 76 | 51 | 1.0 | 4.0 | 0.00 | 0.00 | 0.00 | 81 | 1015.1 |
| 20260902010056 | 77 | 67 | 0.0 | 4.0 | 0.00 | 0.00 | 0.00 | 78 | 1014.2 |
| 20260902004546 | 77 | 50 | 0.0 | 0.0 | 0.00 | 0.00 | 0.00 | 77 | 1013.9 |
| 20260902003043 | 77 | 120 | 0.0 | 1.0 | 0.00 | 0.00 | 0.00 | 77 | 1013.7 |
| 20260902001542 | 79 | 82 | 1.0 | 7.0 | 0.00 | 0.00 | 0.00 | 75 | 1013.4 |
| 20260902000051 | 80 | 70 | 3.0 | 15.0 | 0.00 | 0.00 | 0.00 | 74 | 1013.2 |
| 20260901234604 | 85 | 18 | 3.0 | 8.0 | 0.00 | 0.00 | 0.00 | 75 | 1012.8 |
| 20260901233036 | 0 | 0.0 | 0.0 | 0.00 | 0.00 | 0.00 | 1012.4 | ||
| 20260901231546 | 89 | 307 | 2.0 | 6.0 | 0.00 | 0.00 | 0.00 | 64 | 1012.3 |
| 20260901230049 | 90 | 315 | 3.0 | 6.0 | 0.00 | 0.00 | 0.00 | 63 | 1012.4 |
| 20260901224538 | 90 | 290 | 3.0 | 8.0 | 0.00 | 0.00 | 0.00 | 62 | 1012.3 |
| 20260901223052 | 91 | 316 | 3.0 | 6.0 | 0.00 | 0.00 | 0.00 | 63 | 1012.1 |
| 20260901221536 | 91 | 317 | 2.0 | 5.0 | 0.00 | 0.00 | 0.00 | 63 | 1012.0 |
| 20260901220035 | 92 | 316 | 3.0 | 8.0 | 0.00 | 0.00 | 0.00 | 60 | 1012.1 |
| 20260901214531 | 92 | 321 | 4.0 | 6.0 | 0.00 | 0.00 | 0.00 | 61 | 1011.8 |
| 20260901213028 | 92 | 319 | 0.0 | 4.0 | 0.00 | 0.00 | 0.00 | 63 | 1012.1 |
| 20260901211536 | 92 | 342 | 2.0 | 6.0 | 0.00 | 0.00 | 0.00 | 62 | 1012.2 |
| 20260901210027 | 92 | 325 | 2.0 | 6.0 | 0.00 | 0.00 | 0.00 | 62 | 1012.3 |
| 20260901204538 | 92 | 128 | 1.0 | 6.0 | 0.00 | 0.00 | 0.00 | 63 | 1012.4 |
| 20260901203026 | 92 | 314 | 2.0 | 7.0 | 0.00 | 0.00 | 0.00 | 62 | 1012.5 |
| 20260901201520 | 92 | 316 | 2.0 | 6.0 | 0.00 | 0.00 | 0.00 | 64 | 1012.7 |
| 20260901200033 | 0 | 0.0 | 0.0 | 0.00 | 0.00 | 0.00 | 1012.8 | ||
| 20260901194512 | 0 | 27 | 0.0 | 0.0 | 0.00 | 0.00 | 0.00 | 1013.0 | |
| 20260901193009 | 0 | 0.0 | 0.0 | 0.00 | 0.00 | 0.00 | 1013.3 | ||
| 20260901191509 | 90 | 295 | 3.0 | 8.0 | 0.00 | 0.00 | 0.00 | 65 | 1013.3 |
| 20260901190005 | 90 | 342 | 1.0 | 11.0 | 0.00 | 0.00 | 0.00 | 66 | 1013.5 |
| 20260901184601 | 90 | 314 | 6.0 | 12.0 | 0.00 | 0.00 | 0.00 | 65 | 1013.7 |
| 20260901183101 | 90 | 352 | 1.0 | 11.0 | 0.00 | 0.00 | 0.00 | 67 | 1013.9 |
| 20260901181558 | 90 | 289 | 4.0 | 9.0 | 0.00 | 0.00 | 0.00 | 76 | 1013.9 |
| 20260901180055 | 88 | 238 | 3.0 | 11.0 | 0.00 | 0.00 | 0.00 | 75 | 1013.9 |
| 20260901174552 | 87 | 245 | 5.0 | 10.0 | 0.00 | 0.00 | 0.00 | 77 | 1014.0 |
| 20260901173105 | 87 | 236 | 2.0 | 7.0 | 0.00 | 0.00 | 0.00 | 78 | 1014.1 |
| 20260901171548 | 87 | 323 | 0.0 | 7.0 | 0.00 | 0.00 | 0.00 | 72 | 1014.1 |
| 20260901170043 | 0 | 0.0 | 0.0 | 0.00 | 0.00 | 0.00 | 1014.2 | ||
| 20260901164541 | 85 | 312 | 3.0 | 0.0 | 0.00 | 0.00 | 0.00 | 1014.5 | |
| 20260901163035 | 0 | 0.0 | 0.0 | 0.00 | 0.00 | 0.00 | 1014.6 |